Regional Weather Roundup
Issued by NWS

Current Version | Previous Version | Text Only | Print | Product List | Glossary On
Versions: 1 2 3 4 5 6 7 8 9 10 11 12 13 14 15 16 17 18 19 20 21 22 23 24 25 26 27 28 29 30 31 32 33 34 35 36 37 38 39 40 41 42 43 44 45 46 47 48 49 50
000
ASUS43 KTOP 260508
RWRKS

WEATHER ROUNDUP FOR KANSAS
NATIONAL WEATHER SERVICE GOODLAND KS
1100 PM CST THU DEC 25 2014

NOTE:  "FAIR" INDICATES FEW OR NO CLOUDS BELOW 12,000 FEET WITH NO
SIGNIFICANT WEATHER AND/OR OBSTRUCTIONS TO VISIBILITY.

KSZ001>006-013>018-027>032-041>047-260600-
NORTHWEST KANSAS

CITY           SKY/WX    TMP DP  RH WIND       PRES   REMARKS
GOODLAND       CLOUDY    29  26  89 N15       29.78R WCI  18
HAYS           CLEAR     32  19  59 N17       29.71R WCI  21
HILL CITY      MOCLDY    31  26  82 N22G29    29.77R WCI  18
RUSSELL        CLEAR     35  27  72 N15       29.69R WCI  25
$$

KSZ061>065-074>080-084>089-260600-
SOUTHWEST KANSAS

CITY           SKY/WX    TMP DP  RH WIND       PRES   REMARKS
DODGE CITY     PTCLDY    34  23  64 N12       29.72R WCI  25
ELKHART          N/A     37  14  38 NW9         N/A
GARDEN CITY    MOCLDY    28  23  81 N16       29.72R WCI  16
GREAT BEND     PTCLDY    39  25  56 S13       29.70R WCI  32
LIBERAL        PTCLDY    37  18  44 NW17      29.73R WCI  28
PRATT          PTCLDY    45  28  53 S21G26    29.69R
$$

KSZ066>073-081>083-090>101-260600-
SOUTHEAST KANSAS

CITY           SKY/WX    TMP DP  RH WIND       PRES   REMARKS
CHANUTE        CLOUDY    48  31  51 S16       29.82S
COFFEYVILLE    MOCLDY    50  30  46 S16G23    29.86R
HUTCHINSON     MOCLDY    49  28  44 S20       29.70R
MEDICINE LODGE   N/A     46  28  49 S12       29.71R
NEWTON         MOCLDY    46  27  46 S23G31    29.73R
PARSONS        MOCLDY    49  31  49 S14G22    29.85S
WICHITA INTL   MOCLDY    48  30  49 S17G25    29.73R
WICHITA JABRA  MOCLDY    48  29  47 S25G37    29.73R
WICHITA MCCONL MOCLDY    49  30  48 S18G26    29.75R
WINFIELD       CLOUDY    50  30  46 S21G31    29.78S
$$

KSZ007>012-019>026-033>040-048>060-102>105-260600-
NORTHEAST KANSAS

CITY           SKY/WX    TMP DP  RH WIND       PRES   REMARKS
CONCORDIA      CLEAR     38  30  73 S8        29.68R
EMPORIA        MOCLDY    48  29  47 S23G33    29.73S
LAWRENCE       PTCLDY    48  30  49 S6        29.79R
MANHATTAN      MOCLDY    49  29  46 S12       29.73R
MARYSVILLE     MOCLDY    41  30  65 S6        29.71R
OLATHE IND     MOCLDY    47  31  53 S15       29.79S
OLATHE EXE     PTCLDY    48  30  49 S16G23    29.79S
SALINA         PTCLDY    45  29  53 S3        29.71R
TOPEKA BILLARD CLEAR     50  30  46 S9        29.77R
TOPEKA FORBES  CLEAR     49  30  48 S16G24    29.74R
$$



USA.gov is the U.S. government's official web portal to all federal, state and local government web resources and services.